When you browse on this site, cookies collect data to enhance your experience and personalize the content and advertising you see.
Visit our Privacy Policy to learn more. By continuing to use the site, you agree to this use of cookies and data.
  • In Hungary
  • List of Countries
  • For 7 days
  • Water Temperature
  • Satellite Maps
  • Weather Map
  • News
  • Weather Widgets
  • user-avatar
    Login

    Hourly Weather Usinsk

    Today, 21 November, Wednesday

    Time Temperature Precipitation Wind Pressure Humidity
    00:00 -4°C° 0.6 mm 8 mps 734 mmHg 87%
    01:00 -4°C° 0.6 mm 8 mps 733 mmHg 87%
    02:00 -6°C° 0.3 mm 8 mps 735 mmHg 86%
    03:00 -7°C° 0.3 mm 8 mps 736 mmHg 85%
    04:00 -10°C° 0 mm 8 mps 737 mmHg 85%
    05:00 -9°C° 0.2 mm 7 mps 738 mmHg 85%
    06:00 -10°C° 0.2 mm 6 mps 739 mmHg 86%
    07:00 -10°C° 0.2 mm 6 mps 740 mmHg 86%
    08:00 -12°C° 0 mm 5 mps 740 mmHg 87%
    09:00 -12°C° 0 mm 4 mps 740 mmHg 88%
    10:00 -14°C° 0 mm 4 mps 741 mmHg 90%
    11:00 -14°C° 0 mm 4 mps 741 mmHg 90%
    12:00 -14°C° 0 mm 4 mps 741 mmHg 89%
    13:00 -15°C° 0 mm 4 mps 741 mmHg 88%
    14:00 -15°C° 0 mm 4 mps 741 mmHg 88%
    15:00 -16°C° 0 mm 4 mps 742 mmHg 89%
    16:00 -16°C° 0 mm 4 mps 742 mmHg 89%
    17:00 -16°C° 0 mm 3 mps 742 mmHg 91%
    18:00 -17°C° 0 mm 3 mps 742 mmHg 92%
    19:00 -17°C° 0 mm 3 mps 742 mmHg 93%
    20:00 -18°C° 0 mm 3 mps 742 mmHg 94%
    21:00 -18°C° 0 mm 3 mps 741 mmHg 95%
    22:00 -18°C° 0 mm 2 mps 741 mmHg 95%
    23:00 -18°C° 0 mm 2 mps 741 mmHg 96%

    Tomorrow, 22 November, Thursday

    Time Temperature Precipitation Wind Pressure Humidity
    00:00 -18°C° 0 mm 2 mps 741 mmHg 96%
    01:00 -18°C° 0 mm 2 mps 740 mmHg 96%
    02:00 -18°C° 0 mm 2 mps 740 mmHg 97%
    03:00 -18°C° 0 mm 2 mps 739 mmHg 97%
    04:00 -21°C° 0 mm 3 mps 739 mmHg 98%
    05:00 -19°C° 0 mm 3 mps 739 mmHg 98%
    06:00 -18°C° 0 mm 3 mps 738 mmHg 97%
    07:00 -17°C° 0 mm 3 mps 738 mmHg 97%
    08:00 -17°C° 0.1 mm 3 mps 738 mmHg 96%
    09:00 -17°C° 0.1 mm 3 mps 737 mmHg 96%
    10:00 -16°C° 0.1 mm 3 mps 737 mmHg 96%
    11:00 -16°C° 0.2 mm 3 mps 737 mmHg 95%
    12:00 -16°C° 0.2 mm 3 mps 738 mmHg 95%
    13:00 -16°C° 0.2 mm 3 mps 738 mmHg 95%
    14:00 -16°C° 0.1 mm 3 mps 738 mmHg 95%
    15:00 -16°C° 0.1 mm 3 mps 739 mmHg 95%
    16:00 -16°C° 0.1 mm 2 mps 740 mmHg 95%
    17:00 -16°C° 0 mm 2 mps 740 mmHg 94%
    18:00 -17°C° 0 mm 2 mps 741 mmHg 93%
    19:00 -18°C° 0 mm 2 mps 742 mmHg 93%
    20:00 -19°C° 0 mm 2 mps 742 mmHg 91%
    21:00 -20°C° 0 mm 2 mps 743 mmHg 90%
    22:00 -21°C° 0 mm 2 mps 744 mmHg 89%
    23:00 -23°C° 0 mm 2 mps 744 mmHg 89%

    Day after tomorrow, 23 November, Friday

    Time Temperature Precipitation Wind Pressure Humidity
    00:00 -23°C° 0 mm 2 mps 744 mmHg 90%
    01:00 -24°C° 0 mm 2 mps 745 mmHg 90%
    02:00 -24°C° 0 mm 2 mps 745 mmHg 92%
    03:00 -21°C° 0 mm 1 mps 746 mmHg 93%
    04:00 -22°C° 0 mm 1 mps 746 mmHg 95%
    05:00 -22°C° 0 mm 1 mps 746 mmHg 96%
    06:00 -23°C° 0 mm 1 mps 746 mmHg 97%
    07:00 -23°C° 0 mm 0 mps 746 mmHg 98%
    08:00 -23°C° 0 mm 0 mps 746 mmHg 98%
    09:00 -24°C° 0 mm 0 mps 746 mmHg 98%
    10:00 -24°C° 0 mm 0 mps 747 mmHg 98%
    11:00 -24°C° 0 mm 0 mps 747 mmHg 98%
    12:00 -23°C° 0 mm 0 mps 747 mmHg 98%
    13:00 -23°C° 0 mm 0 mps 747 mmHg 98%
    14:00 -23°C° 0 mm 0 mps 747 mmHg 98%
    15:00 -24°C° 0 mm 0 mps 748 mmHg 98%
    16:00 -24°C° 0 mm 0 mps 748 mmHg 98%
    17:00 -24°C° 0 mm 0 mps 748 mmHg 98%
    18:00 -24°C° 0 mm 0 mps 748 mmHg 98%
    19:00 -25°C° 0 mm 0 mps 748 mmHg 98%
    20:00 -25°C° 0 mm 0 mps 748 mmHg 98%
    21:00 -25°C° 0 mm 0 mps 748 mmHg 98%
    22:00 -25°C° 0 mm 0 mps 748 mmHg 98%
    23:00 -25°C° 0 mm 0 mps 748 mmHg 98%

    24 November, Saturday

    Time Temperature Precipitation Wind Pressure Humidity
    00:00 -25°C° 0 mm 0 mps 748 mmHg 98%
    01:00 -25°C° 0 mm 0 mps 748 mmHg 98%
    02:00 -25°C° 0 mm 0 mps 748 mmHg 98%
    03:00 -25°C° 0 mm 1 mps 748 mmHg 98%
    04:00 -25°C° 0 mm 1 mps 748 mmHg 98%
    05:00 -25°C° 0 mm 1 mps 748 mmHg 98%
    06:00 -25°C° 0 mm 1 mps 747 mmHg 98%
    07:00 -25°C° 0 mm 1 mps 747 mmHg 98%
    08:00 -25°C° 0 mm 1 mps 747 mmHg 98%
    09:00 -25°C° 0 mm 1 mps 747 mmHg 98%
    10:00 -25°C° 0 mm 1 mps 747 mmHg 97%
    11:00 -25°C° 0 mm 1 mps 747 mmHg 97%
    12:00 -25°C° 0 mm 1 mps 747 mmHg 96%
    13:00 -24°C° 0 mm 1 mps 747 mmHg 95%
    14:00 -25°C° 0 mm 1 mps 747 mmHg 94%
    15:00 -25°C° 0 mm 1 mps 747 mmHg 94%
    16:00 -25°C° 0 mm 1 mps 747 mmHg 93%
    17:00 -25°C° 0 mm 1 mps 746 mmHg 93%
    18:00 -25°C° 0 mm 1 mps 746 mmHg 93%
    19:00 -25°C° 0 mm 1 mps 746 mmHg 93%
    20:00 -25°C° 0 mm 1 mps 746 mmHg 94%
    21:00 -24°C° 0 mm 1 mps 746 mmHg 94%
    22:00 -27°C° 0 mm 2 mps 746 mmHg 95%
    23:00 -27°C° 0 mm 2 mps 746 mmHg 96%

    25 November, Sunday

    Time Temperature Precipitation Wind Pressure Humidity
    00:00 -26°C° 0 mm 2 mps 746 mmHg 97%
    01:00 -26°C° 0 mm 2 mps 746 mmHg 98%
    02:00 -25°C° 0 mm 2 mps 746 mmHg 98%
    03:00 -24°C° 0 mm 2 mps 746 mmHg 98%
    04:00 -24°C° 0 mm 2 mps 746 mmHg 98%
    05:00 -23°C° 0 mm 2 mps 746 mmHg 98%
    06:00 -21°C° 0 mm 2 mps 746 mmHg 98%
    07:00 -20°C° 0 mm 2 mps 746 mmHg 98%
    08:00 -19°C° 0 mm 2 mps 746 mmHg 97%
    09:00 -19°C° 0 mm 2 mps 747 mmHg 97%
    10:00 -18°C° 0 mm 2 mps 747 mmHg 97%
    11:00 -17°C° 0 mm 2 mps 747 mmHg 97%
    12:00 -17°C° 0 mm 2 mps 747 mmHg 96%
    13:00 -16°C° 0 mm 2 mps 747 mmHg 96%
    14:00 -16°C° 0 mm 2 mps 748 mmHg 96%
    15:00 -16°C° 0 mm 2 mps 748 mmHg 96%
    16:00 -16°C° 0 mm 2 mps 748 mmHg 97%
    17:00 -16°C° 0.1 mm 2 mps 748 mmHg 97%
    18:00 -17°C° 0.1 mm 2 mps 749 mmHg 97%
    19:00 -17°C° 0.1 mm 2 mps 749 mmHg 97%
    20:00 -18°C° 0 mm 2 mps 749 mmHg 97%
    21:00 -19°C° 0 mm 2 mps 749 mmHg 97%
    22:00 -20°C° 0 mm 2 mps 750 mmHg 98%
    23:00 -23°C° 0 mm 2 mps 750 mmHg 97%

    26 November, Monday

    Time Temperature Precipitation Wind Pressure Humidity
    00:00 -21°C° 0 mm 1 mps 750 mmHg 97%
    01:00 -22°C° 0 mm 1 mps 751 mmHg 97%
    02:00 -23°C° 0 mm 1 mps 751 mmHg 97%
    03:00 -24°C° 0 mm 1 mps 751 mmHg 97%
    04:00 -24°C° 0 mm 1 mps 751 mmHg 97%
    05:00 -25°C° 0 mm 1 mps 752 mmHg 97%
    06:00 -25°C° 0 mm 1 mps 752 mmHg 98%
    07:00 -25°C° 0 mm 1 mps 752 mmHg 98%
    08:00 -27°C° 0 mm 1 mps 752 mmHg 98%
    09:00 -27°C° 0 mm 1 mps 752 mmHg 98%
    10:00 -27°C° 0 mm 1 mps 752 mmHg 99%
    11:00 -27°C° 0 mm 1 mps 753 mmHg 98%
    12:00 -25°C° 0 mm 1 mps 753 mmHg 98%
    13:00 -25°C° 0 mm 1 mps 753 mmHg 98%
    14:00 -25°C° 0 mm 1 mps 753 mmHg 98%
    15:00 -27°C° 0 mm 1 mps 754 mmHg 98%
    16:00 -27°C° 0 mm 1 mps 754 mmHg 98%
    17:00 -27°C° 0 mm 1 mps 754 mmHg 98%
    18:00 -27°C° 0 mm 1 mps 754 mmHg 98%
    19:00 -27°C° 0 mm 1 mps 754 mmHg 98%
    20:00 -29°C° 0 mm 2 mps 754 mmHg 98%
    21:00 -29°C° 0 mm 2 mps 754 mmHg 98%
    22:00 -29°C° 0 mm 2 mps 755 mmHg 98%
    23:00 -30°C° 0 mm 2 mps 755 mmHg 98%
    Show more